Starlink 32634

operational
NORAD ID: 62313 Int'l Des: 2024-239 Owner: SPXS Country: US Constellation: starlink
LEOCIRCULAR

About Starlink 32634

Description loading...

Live Position

Loading 3D Globe...

Upcoming Passes

Altitude History

Altitude vs Time

uPlot chart will show altitude changes over time

Two-Line Element Set

1 62313U 24239N 26095.18727470 .00032291 00000-0 10984-2 0 9994
2 62313 53.1591 57.8565 0001289 88.8577 271.2571 15.30176547 73622
Epoch: Apr 5, 2026 • Age: 7 hours

Current Status

Altitude 492.8 km
Velocity 7.62 km/s
Sub-Earth Point -48.64°S, 77.3°W
Launch Date Dec 13, 2024
Age 1.3 years
Type internet

Technical Details

Classification Payload
Mass 730.00 kg
Dry Mass 700.00 kg
Total Mass 730.00 kg
Length 0.30 m
Diameter 4.10 m
Span 29.00 m
Shape Box + pan
Manufacturer SPXS
Bus Type Starlink V2M
Phase Status In Orbit
Owner/State SPXS/US

Large Constellations

Loading constellations...